Location: Flynn Junction
(40.1314°N, 99.5162°W)
Time: 21:22:37
(UTC+00:00)

Cosmos 2098 Rocket - Pass Details

Date: 29 October 2020
Orbit: 366 x 1184 km, 82.9° (Epoch: 30 November)

Event Time Altitude Azimuth Distance (km) Brightness Sun altitude
Rises 12:18:12 0° 192° (SSW) 3,745 7.0 -9.5°
Reaches altitude 10° 12:21:00 10° 194° (SSW) 2,685 6.3 -8.9°
Maximum altitude 12:27:04 68° 277° (W) 878 3.6 -7.8°
Drops below altitude 10° 12:31:55 10° 1° (N) 2,150 5.7 -6.9°
Sets 12:33:58 0° 4° (N) 2,950 6.5 -6.5°
